Weather

DAILY 7 DAY TOTAL
onrain

Note: Some stations are located near irrigated fields and may also report irrigation

Alliston Mount Forest Blyth Guelph Grand Bend Strathroy Woodstock Belmont Simcoe Leamington Chatham West Lorne






Rockwood-Bayer - Historical Weather Data
Date Max Temp (°C) Min Temp (°C) Avg Temp (°C) Rain (mm) 7Day Rain(mm) Total Rain(mm) Avg RH (%)
9/21/2019 34.3 12.2 20.7 0.0 5.4 319.6 83.3
9/20/2019 34.1 8.4 17.6 0.0 5.4 319.6 85.3
9/19/2019 28.9 7.9 15.7 0.0 9.0 319.6 82.3
9/18/2019 30.5 8.1 16.3 0.0 12.2 319.6 81.4
9/17/2019 32.5 7.0 17.2 0.0 14.4 319.6 79.3
9/16/2019 18.0 10.6 14.5 0.4 25.6 319.6 96.6
9/15/2019 17.1 7.6 12.1 5.0 25.2 319.2 99.5
9/14/2019 24.5 8.7 15.9 0.0 20.2 314.2 84.5
9/13/2019 20.2 9.9 14.9 3.6 20.6 314.2 92.4
9/12/2019 18.7 10.3 14.3 3.2 18.2 310.6 89.0
9/11/2019 26.8 16.5 20.8 2.2 15.0 307.4 86.9
9/10/2019 24.3 8.8 16.9 11.2 13.2 305.2 81.2
9/9/2019 19.1 6.7 12.1 0.0 10.0 294.0 75.6
9/8/2019 16.2 7.2 12.2 0.0 10.4 294.0 81.8
9/7/2019 20.7 9.0 14.5 0.4 12.2 294.0 83.3
9/6/2019 22.8 6.9 13.5 1.2 11.8 293.6 90.8
9/5/2019 29.2 5.1 15.2 0.0 11.2 292.4 76.3
9/4/2019 19.7 7.0 15.0 0.4 11.2 292.4 87.6
9/3/2019 24.4 6.9 16.0 8.0 11.0 292.0 91.0
9/2/2019 24.8 10.9 16.8 0.4 11.6 284.0 87.2
9/1/2019 20.6 9.3 14.2 1.8 11.2 283.6 90.9
8/31/2019 27.8 5.0 14.4 0.0 9.4 281.8 77.5
8/30/2019 25.5 7.8 16.6 0.6 9.4 281.8 76.4
8/29/2019 27.2 9.5 17.6 0.0 8.8 281.2 77.3
8/28/2019 27.8 11.2 18.4 0.2 8.8 281.2 80.6
8/27/2019 20.2 16.1 18.1 8.6 10.8 281.0 95.7
8/26/2019 23.0 12.8 17.4 0.0 4.8 272.4 78.8
8/25/2019 24.1 8.0 15.6 0.0 7.4 272.4 79.8
8/24/2019 28.8 6.6 15.0 0.0 26.6 272.4 81.9
8/23/2019 23.6 8.0 14.3 0.0 34.4 272.4 80.9
8/22/2019 26.1 10.0 16.5 0.0 34.4 272.4 81.1
8/21/2019 31.3 15.6 22.5 2.2 37.6 272.4 84.8
8/20/2019 33.1 11.6 20.6 2.6 35.4 270.2 85.9
8/19/2019 30.2 13.3 20.7 2.6 32.8 267.6 82.9
8/18/2019 27.9 16.0 19.9 19.2 30.2 265.0 89.9
8/17/2019 26.2 14.7 20.2 7.8 11.0 245.8 81.3
8/16/2019 25.7 13.3 18.9 0.0 3.2 238.0 77.6
8/15/2019 23.5 11.9 16.6 3.2 3.2 238.0 76.9
8/14/2019 24.9 14.5 19.1 0.0 4.0 234.8 58.5
8/13/2019 28.4 14.5 21.3 0.0 4.0 234.8 65.8
8/12/2019 28.0 16.8 21.3 0.0 10.8 234.8 76.0
8/11/2019 25.6 10.4 18.5 0.0 10.8 234.8 65.9
8/10/2019 22.0 9.4 16.0 0.0 10.8 234.8 70.4
8/9/2019 22.6 10.5 16.7 0.0 10.8 234.8 73.8
8/8/2019 22.9 13.3 18.1 4.0 10.8 234.8 79.3
8/7/2019 26.5 16.5 21.0 0.0 6.8 230.8 73.6
8/6/2019 24.1 17.7 20.5 6.8 6.8 230.8 86.6
8/5/2019 28.5 12.4 20.7 0.0 9.2 224.0 67.0
8/4/2019 26.4 15.3 20.3 0.0 10.2 224.0 66.5
8/3/2019 27.9 11.0 20.6 0.0 10.4 224.0 63.5
8/2/2019 27.2 12.7 20.2 0.0 10.4 224.0 57.1
8/1/2019 26.1 12.2 19.4 0.0 10.4 224.0 60.9
7/31/2019 26.6 12.4 18.7 0.0 10.4 224.0 72.6
7/30/2019 27.2 16.1 21.4 9.2 10.4 224.0 81.9
7/29/2019 29.6 17.7 22.8 1.0 1.2 214.8 79.0
7/28/2019 29.5 18.9 23.6 0.2 8.0 213.8 70.1
7/27/2019 27.9 14.6 21.8 0.0 7.8 213.6 69.7
7/26/2019 28.5 14.0 21.3 0.0 24.4 213.6 72.1
7/25/2019 27.3 12.3 19.8 0.0 24.4 213.6 66.1
7/24/2019 24.9 12.0 18.4 0.0 24.4 213.6 64.7
7/23/2019 24.9 11.3 18.0 0.0 34.2 213.6 65.8
7/22/2019 23.8 15.1 18.5 7.8 35.6 213.6 82.1
7/21/2019 31.0 16.5 22.0 0.0 27.8 205.8 76.9
7/20/2019 31.4 19.4 25.2 16.6 27.8 205.8 80.8
7/19/2019 28.9 20.5 24.3 0.0 14.6 189.2 85.3
7/18/2019 27.9 17.8 22.7 0.0 14.6 189.2 82.9
7/17/2019 27.8 19.5 22.8 9.8 27.4 189.2 87.6
7/16/2019 28.6 16.2 21.9 1.4 17.6 179.4 79.6
7/15/2019 28.4 9.2 19.4 0.0 16.2 178.0 67.3
7/14/2019 25.5 12.4 19.3 0.0 16.2 178.0 65.7
7/13/2019 27.5 12.7 20.4 3.4 16.2 178.0 78.2
7/12/2019 20.6 14.1 16.9 0.0 12.8 174.6 84.3
7/11/2019 27.6 15.0 21.1 12.8 13.4 174.6 82.4
7/10/2019 29.4 12.5 21.9 0.0 0.6 161.8 66.9
7/9/2019 27.3 12.8 19.8 0.0 0.8 161.8 60.4
7/8/2019 26.3 10.7 19.0 0.0 1.8 161.8 62.1
7/7/2019 24.8 14.4 20.0 0.0 1.8 161.8 63.6
7/6/2019 28.7 20.0 24.0 0.0 1.8 161.8 78.0
7/5/2019 31.4 18.3 24.3 0.6 5.4 161.8 80.3
7/4/2019 28.9 15.2 23.0 0.0 12.8 161.2 70.3
7/3/2019 29.8 15.9 22.0 0.2 12.8 161.2 80.5
7/2/2019 23.9 18.0 20.5 1.0 15.2 161.0 85.6
7/1/2019 26.7 10.5 19.5 0.0 17.4 160.0 71.7
6/30/2019 31.7 13.0 19.7 0.0 33.6 160.0 72.2
6/29/2019 33.3 14.1 21.9 3.6 33.6 160.0 82.9
6/28/2019 29.9 12.6 19.4 8.0 30.0 156.4 92.9
6/27/2019 36.0 10.9 21.9 0.0 22.2 148.4 79.5
6/26/2019 29.2 12.6 20.6 2.6 31.2 148.4 80.7
6/25/2019 26.3 13.3 19.1 3.2 28.6 145.8 86.3
6/24/2019 31.3 10.3 19.0 16.2 25.4 142.6 85.0
6/23/2019 33.8 7.5 19.2 0.0 9.2 126.4 73.8
6/22/2019 29.8 7.5 17.2 0.0 9.2 126.4 74.2
6/21/2019 26.2 10.3 16.6 0.2 10.0 126.4 77.0
6/20/2019 26.2 13.3 17.4 9.0 10.0 126.2 90.0
6/19/2019 31.9 10.8 20.4 0.0 18.0 117.2 75.6
6/18/2019 29.2 12.4 19.5 0.0 18.0 117.2 76.0
6/17/2019 28.2 7.4 17.5 0.0 18.0 117.2 77.8
6/16/2019 26.3 6.8 14.9 0.0 26.8 117.2 79.8
6/15/2019 17.7 11.5 14.8 0.8 26.8 117.2 86.5
6/14/2019 25.3 6.8 14.9 0.2 26.0 116.4 74.5
6/13/2019 16.3 9.1 12.8 17.0 25.8 116.2 98.1
6/12/2019 26.7 4.4 15.1 0.0 9.0 99.2 75.2
6/11/2019 26.3 5.0 14.4 0.0 16.0 99.2 74.3
6/10/2019 21.1 10.3 15.6 8.8 16.0 99.2 89.0
6/9/2019 33.1 8.4 18.8 0.0 7.2 90.4 73.1
6/8/2019 33.2 7.4 18.4 0.0 8.6 90.4 67.5
6/7/2019 33.6 7.6 18.2 0.0 10.2 90.4 71.8
6/6/2019 33.8 10.6 19.0 0.2 10.2 90.4 80.7
6/5/2019 20.6 10.9 15.4 7.0 10.0 90.2 97.6
6/4/2019 22.7 1.1 11.7 0.0 3.2 83.2 84.2
6/3/2019 19.0 1.7 9.4 0.0 8.0 83.2 71.9
6/2/2019 21.7 3.0 13.1 1.4 8.0 83.2 74.4
6/1/2019 29.2 10.5 17.1 1.6 6.6 81.8 88.5
5/31/2019 32.4 2.4 15.3 0.0 6.6 80.2 80.5
5/30/2019 24.4 7.3 15.2 0.0 6.6 80.2 89.5
5/29/2019 21.2 9.5 13.2 0.2 8.4 80.2 92.0
5/28/2019 13.2 8.0 10.4 4.8 8.8 80.0 97.3
5/27/2019 31.2 6.6 15.9 0.0 4.0 75.2 81.5
5/26/2019 26.3 7.6 17.0 0.0 4.0 75.2 83.4
5/25/2019 23.2 7.6 15.0 1.6 7.0 75.2 99.1
5/24/2019 30.0 7.2 14.5 0.0 5.4 73.6 82.7
5/23/2019 25.5 4.9 14.3 1.8 5.4 73.6 82.6
5/22/2019 18.3 3.4 9.3 0.6 3.8 71.8 78.9
5/21/2019 23.2 0.5 10.5 0.0 3.2 71.2 74.0
5/20/2019 14.4 3.1 10.5 0.0 4.4 71.2 89.1
5/19/2019 28.7 5.6 16.2 3.0 18.2 71.2 76.0
5/18/2019 18.3 2.5 10.0 0.0 20.2 68.2 76.4
5/17/2019 24.2 6.5 12.8 0.0 20.2 68.2 83.6
5/16/2019 23.7 2.8 11.7 0.2 27.2 68.2 81.4
5/15/2019 23.8 0.9 11.1 0.0 39.6 68.0 81.0
5/14/2019 16.8 2.3 8.3 1.2 39.6 68.0 86.8
5/13/2019 12.6 3.4 6.2 13.8 38.8 66.8 97.7
5/12/2019 11.9 3.7 6.3 5.0 25.0 53.0 92.6
5/11/2019 22.0 -2.7 6.9 0.0 20.2 48.0 83.3
5/10/2019 15.6 0.8 9.0 7.0 20.2 48.0 93.6
5/9/2019 19.3 4.7 11.2 12.6 23.4 41.0 77.6
5/8/2019 23.2 -0.2 9.3 0.0 11.0 28.4 65.5
5/7/2019 18.7 1.0 9.3 0.4 28.4 28.4 74.7
5/6/2019 22.2 2.6 11.7 0.0 29.6 28.0 84.0
5/5/2019 28.8 2.4 12.9 0.2 31.8 28.0 79.1
5/4/2019 15.4 4.7 9.2 0.0 31.6 27.8 93.5
5/3/2019 15.2 5.1 8.6 10.2 31.6 27.8 95.3
5/2/2019 22.8 4.6 10.3 0.2 42.8 17.6 87.8
5/1/2019 8.9 2.7 5.7 17.4 42.8 17.4 98.6